Regional Weather Roundup
Issued by NWS

Home | Current Version | Previous Version | Graphics & Text | Print | Product List | Glossary On
Versions: 1 2 3 4 5 6 7 8 9 10 11 12 13 14 15 16 17 18 19 20 21 22 23 24 25 26 27 28 29 30 31 32 33 34 35 36 37 38 39 40 41 42 43 44 45 46 47 48 49
000
ASUS45 KBOU 271407
RWRCO

WEATHER ROUNDUP FOR COLORADO
NATIONAL WEATHER SERVICE DENVER/BOULDER CO
700 AM MST TUE JAN 27 2015

NOTE: "FAIR" INDICATES FEW OR NO CLOUDS BELOW 12000 FEET WITH NO
SIGNIFICANT WEATHER AND/OR OBSTRUCTIONS TO VISIBILITY.

COZ001>005-013-030-031-271500-
...NORTHWEST COLORADO...

CITY           SKY/WX    TMP DP  RH WIND       PRES   REMARKS
CRAIG          NOT AVBL
HAYDEN         PTCLDY    27  16  63 E14       30.32S WCI  15
MEEKER         PTCLDY    15  11  83 E3        30.32R
MOUNT WERNER   NOT AVBL
STEAMBOAT SPGS PTCLDY    18  16  92 CALM      30.35R
WALDEN         PTCLDY    16  10  79 CALM      30.37S
$$

COZ006>008-011-271500-
...WEST CENTRAL VALLEYS...

CITY           SKY/WX    TMP DP  RH WIND       PRES   REMARKS
GRAND JUNCTION MOCLDY    27  24  89 E6        30.30R WCI  20
MONTROSE       MOCLDY    30  23  75 SE5       30.34R WCI  25
EAGLE          PTCLDY    16  16 100 CALM      30.45R
RIFLE          PTCLDY    27  21  78 CALM      30.34R
DELTA          MOCLDY    30  25  80 CALM      30.34R
NUCLA          MOCLDY    28  23  80 SE5       30.37S WCI  23
$$

COZ017>023-064>068-271500-
...SOUTHWEST COLORADO...

CITY           SKY/WX    TMP DP  RH WIND       PRES   REMARKS
DURANGO        CLEAR     27  23  85 E3        30.36R
CORTEZ         CLEAR     24  20  84 E5        30.33R WCI  18
PAGOSA SPRINGS CLEAR     26  23  88 CALM      30.40R
TELLURIDE      PTCLDY    42  15  33 CALM      30.41S
WOLF CREEK PAS NOT AVBL
$$

COZ009-010-012-014-032>034-037-058>063-271500-
...CENTRAL COLORADO...

CITY           SKY/WX    TMP DP  RH WIND       PRES   REMARKS
ASPEN          CLEAR     23  14  68 S9        30.36R WCI  13
BUENA VISTA    PTCLDY    26  17  67 NW6       30.39R WCI  20
COPPER MTN     PTCLDY    37   3  23 S9        30.50F
BERTHOUD PASS  FAIR      30  23  74 NW15      30.52S WCI  19
COTTONWOOD PAS PTCLDY    41  10  28 CALM      30.42S
GUNNISON       PTCLDY     0 -15  50 CALM      30.49R
KREMMLING      SNOW     N/A N/A N/A CALM      30.47R VSB 1/2
LEADVILLE      PTCLDY    18   7  62 NE6       30.41S WCI  10
MONARCH PASS   PTCLDY    30  12  47 SW28      30.59S WCI  16
SALIDA         PTCLDY    33  19  55 NW12      30.44F WCI  24
SUNLIGHT       CLEAR     36  18  48 CALM        N/A
WILKERSON PASS PTCLDY    32  12  43 SW10G21   30.47S WCI  24
$$

COZ069>075-271500-
...SAN LUIS VALLEY/SANGRE DE CRISTO MOUNTAINS...

CITY           SKY/WX    TMP DP  RH WIND       PRES   REMARKS
ALAMOSA        MOCLDY    10   8  92 W5        30.41R WCI   2
LA VETA PASS   NOT AVBL
SAGUACHE       PTCLDY    19  14  79 NW10      30.41S WCI   8
$$

COZ035-036-038>040-271500-
...NORTHERN COLORADO FRONT RANGE...

CITY           SKY/WX    TMP DP  RH WIND       PRES   REMARKS
DENVER INTL AP PTCLDY    45  22  40 SW16      30.15S
DMNS CITY PARK   N/A     46  18  32 S5G10     30.17R
AURORA         PTCLDY    44  21  39 SW14      30.17S
FRONT RANGE AP NOT AVBL
ERIE MUNI ARPT CLEAR     35  22  60 CALM      30.14R
BOULDER MUN AP CLEAR     48  19  32 CALM      30.13S
CENTENNIAL     PTCLDY    44  21  40 S10       30.18S
BROOMFIELD     PTCLDY    50  16  25 S3        30.16S
FORT COLLINS   CLEAR     34  21  60 CALM      30.15S
LONGMONT       CLEAR     31  22  70 CALM      30.16R
$$

COZ041-046-047-076>085-087-088-271500-
...PIKES PEAK/PALMER DIVIDE AND SOUTHERN FOOTHILLS...

CITY           SKY/WX    TMP DP  RH WIND       PRES   REMARKS
COLO. SPRINGS  PTCLDY    39  22  50 N9        30.24R
A. F. ACADEMY  CLEAR     33  20  58 N9        30.24S WCI  25
ELLICOTT       CLEAR    N/A N/A N/A NE3       30.22S
FALCON         CLEAR     35  19  54 NW8       30.27R WCI  28
FORT CARSON    CLEAR     39  21  48 NW10      30.20S
LIMON          PTCLDY    34  24  67 N7        30.18R WCI  28
MONUMENT HILL  CLEAR     41  19  42 SW9       30.25S
TRINIDAD       PTCLDY    35  22  58 W9        30.25R WCI  28
$$

COZ042>045-048>051-090-091-271500-
...NORTHEAST COLORADO...

CITY           SKY/WX    TMP DP  RH WIND       PRES   REMARKS
GREELEY ARPT   CLEAR     27  18  69 W5        30.13R WCI  21
AKRON          PTCLDY    42  27  55 W15       30.12R
BURLINGTON     CLEAR     40  26  57 W9        30.13R
WRAY           CLEAR     35  30  80 W8        30.10R WCI  29
STERLING       PTCLDY    34  32  93 CALM      30.12R
HOLYOKE        CLEAR     37  30  75 W12       30.08S
FORT MORGAN    PTCLDY    29  25  84 W7        30.13R WCI  22
$$

COZ086-089-092>099-271500-
...SOUTHEAST COLORADO...

CITY           SKY/WX    TMP DP  RH WIND       PRES   REMARKS
PUEBLO         CLEAR     31  25  78 W7        30.19S WCI  24
LA JUNTA       CLEAR     34  27  75 W10       30.18R WCI  26
LAMAR          CLEAR     33  29  85 SW8       30.16R WCI  26
SPRINGFIELD      N/A     38  25  59 W10       30.18R
$$


USA.gov is the U.S. government's official web portal to all federal, state and local government web resources and services.